DW0326 Weather Reports


time (UTC)temp
C
wind
direction
speed
KPH
gust
KPH
rain 1hr
cm
rain 24hr
cm
rain mn
cm
humidity
%
barometer
mb
20260510103542 23 0 0.0 0.0 0.00 0.00 0.00 94 1006.5
20260510102642 23 205 0.0 8.0 0.00 0.00 0.00 95 1006.5
20260510101742 23 207 1.6 14.5 0.00 0.00 0.00 94 1006.6
20260510100842 23 205 0.0 14.5 0.00 0.00 0.00 94 1006.5
20260510095943 23 196 1.6 6.4 0.00 0.00 0.00 94 1006.5
20260510095042 23 187 3.2 16.1 0.00 0.00 0.00 94 1006.5
20260510094143 23 183 6.4 19.3 0.00 0.00 0.00 94 1006.5
20260510093242 23 184 8.0 24.1 0.00 0.00 0.00 95 1006.5
20260510092342 23 186 6.4 17.7 0.00 0.00 0.00 95 1006.5
20260510091442 23 181 4.8 17.7 0.00 0.00 0.00 95 1006.5
20260510090542 23 187 6.4 19.3 0.00 0.00 0.00 95 1006.6
20260510085642 23 179 4.8 16.1 0.00 0.00 0.00 95 1006.6
20260510083842 23 0 0.0 0.0 0.00 0.00 0.00 95 1006.6
20260510082943 23 0 0.0 0.0 0.00 0.00 0.00 94 1006.6
20260510082042 23 186 0.0 9.7 0.00 0.00 0.00 94 1006.6
20260510081142 23 174 1.6 14.5 0.00 0.00 0.00 94 1006.5
20260510080242 23 0 0.0 0.0 0.00 0.00 0.00 94 1006.5
20260510075342 23 0 0.0 0.0 0.00 0.00 0.00 93 1006.4
20260510074442 23 176 1.6 11.3 0.00 0.00 0.00 93 1006.4
20260510073543 23 185 3.2 17.7 0.00 0.00 0.00 93 1006.5
20260510072642 24 182 1.6 16.1 0.00 0.00 0.00 92 1006.5
20260510071742 24 184 3.2 14.5 0.00 0.00 0.00 93 1006.5
20260510070842 24 172 1.6 11.3 0.00 0.00 0.00 93 1006.7
20260510065942 24 191 1.6 16.1 0.00 0.00 0.00 93 1006.7
20260510065042 24 198 0.0 9.7 0.00 0.00 0.00 93 1006.5
20260510064142 24 194 1.6 11.3 0.00 0.00 0.00 93 1006.5
20260510063242 24 196 1.6 14.5 0.00 0.00 0.00 93 1006.6
20260510062342 24 196 4.8 11.3 0.00 0.00 0.00 93 1006.7
20260510061442 25 187 3.2 16.1 0.00 0.00 0.00 93 1006.7
20260510060542 25 186 3.2 17.7 0.00 0.00 0.00 92 1006.8
20260510055643 25 185 0.0 11.3 0.00 0.00 0.00 92 1006.8
20260510054742 25 154 1.6 14.5 0.00 0.00 0.00 92 1006.9
20260510053842 25 122 0.0 14.5 0.00 0.00 0.00 91 1007.0
20260510052942 25 147 1.6 16.1 0.00 0.00 0.00 91 1007.0
20260510051142 25 139 1.6 9.7 0.00 0.00 0.00 92 1007.1
20260510050243 25 144 3.2 19.3 0.00 0.00 0.00 92 1007.0
20260510045342 25 145 3.2 19.3 0.00 0.00 0.00 92 1007.4
20260510044442 25 151 1.6 19.3 0.00 0.00 0.00 92 1007.4
20260510043542 25 119 1.6 9.7 0.00 0.00 0.00 91 1007.5
20260510042642 25 123 0.0 8.0 0.00 0.00 0.00 91 1007.5
20260510041742 25 85 1.6 12.9 0.00 0.00 0.00 90 1007.5
20260510040842 25 104 1.6 11.3 0.00 0.00 0.00 89 1007.1
20260510035943 25 103 1.6 11.3 0.00 0.00 0.00 88 1007.1
20260510035042 25 91 0.0 9.7 0.00 0.00 0.00 88 1007.4
20260510034142 26 103 1.6 11.3 0.00 0.00 0.00 88 1007.4
20260510033242 26 125 1.6 11.3 0.00 0.00 0.00 87 1007.5
20260510032342 26 109 1.6 14.5 0.00 0.00 0.00 86 1007.5
20260510031442 26 134 3.2 14.5 0.00 0.00 0.00 85 1007.5
20260510030542 27 110 1.6 16.1 0.00 0.00 0.00 85 1007.2
20260510025642 27 96 3.2 22.5 0.00 0.00 0.00 83 1007.2
20260510024742 27 106 1.6 14.5 0.00 0.00 0.00 77 1006.7
20260510023843 27 119 1.6 14.5 0.00 0.00 0.00 75 1006.4
20260510022942 27 121 1.6 11.3 0.00 0.00 0.00 74 1006.4
20260510022042 27 157 0.0 9.7 0.00 0.00 0.00 72 1006.0
20260510015343 27 195 3.2 16.1 0.00 0.00 0.00 70 1005.2
20260510014442 26 198 1.6 11.3 0.00 0.00 0.00 72 1005.2
20260510013543 26 205 0.0 6.4 0.00 0.00 0.00 82 1004.9
20260510012642 26 0 0.0 0.0 0.00 0.00 0.00 82 1004.9
20260510011742 26 0 0.0 0.0 0.00 0.00 0.00 82 1004.5
20260510005942 27 0 0.0 0.0 0.00 0.00 0.00 81 1004.4
20260510002342 28 0 0.0 0.0 0.00 0.00 0.00 78 1003.9
20260510001442 29 0 0.0 0.0 0.00 0.00 0.00 76 1003.9
20260509234742 31 199 3.2 17.7 0.00 0.00 0.00 65 1003.4
20260509232942 31 190 3.2 17.7 0.00 0.00 0.00 60 1003.7
20260509232042 31 201 1.6 14.5 0.00 0.00 0.00 58 1003.5
20260509230430 32 210 0.0 9.7 0.00 0.00 0.00 59 1003.3
20260509225528 32 216 0.0 9.7 0.00 0.00 0.00 59 1003.3
20260509224628 32 222 0.0 8.0 0.00 0.00 0.00 56 1003.3
20260509223729 32 276 0.0 6.4 0.00 0.00 0.00 58 1003.1
20260509221929 33 0 0.0 0.0 0.00 0.00 0.00 61 1003.0
20260509221029 33 0 0.0 0.0 0.00 0.00 0.00 62 1003.0
20260509220129 33 0 0.0 0.0 0.00 0.00 0.00 62 1003.0
20260509215229 33 0 0.0 0.0 0.00 0.00 0.00 60 1003.1
20260509214328 33 0 0.0 0.0 0.00 0.00 0.00 61 1003.1
20260509213428 33 0 0.0 0.0 0.00 0.00 0.00 62 1003.1
20260509212530 33 9 0.0 11.3 0.00 0.00 0.00 61 1003.3
20260509211629 33 9 0.0 11.3 0.00 0.00 0.00 64 1003.3
20260509205828 33 14 0.0 14.5 0.00 0.00 0.00 63 1003.4
20260509204030 32 3 0.0 11.3 0.00 0.00 0.00 64 1003.8
20260509203128 32 0 0.0 0.0 0.00 0.00 0.00 65 1003.8
20260509202228 32 0 0.0 0.0 0.00 0.00 0.00 65 1003.9
20260509201328 32 0 0.0 0.0 0.00 0.00 0.00 65 1003.9
20260509200428 32 0 0.0 0.0 0.00 0.03 0.00 67 1004.0
20260509195529 32 353 0.0 9.7 0.00 0.03 0.00 68 1004.3
20260509194629 31 351 0.0 9.7 0.00 0.03 0.00 69 1004.3
20260509193728 31 33 0.0 9.7 0.00 0.03 0.00 68 1004.3
20260509191929 31 36 0.0 11.3 0.00 0.03 0.00 69 1004.4
20260509190129 31 0 0.0 0.0 0.00 0.03 0.00 71 1004.4
20260509185228 31 0 0.0 0.0 0.00 0.03 0.00 68 1004.7
20260509183428 31 0 0.0 0.0 0.00 0.03 0.00 71 1004.9
20260509182528 31 0 0.0 0.0 0.00 0.03 0.00 74 1005.4
20260509181628 30 175 0.0 9.7 0.00 0.03 0.00 74 1005.4
20260509180728 30 204 1.6 14.5 0.00 0.03 0.00 74 1005.5
20260509175828 30 194 1.6 14.5 0.00 0.08 0.00 76 1005.5
20260509174929 30 183 4.8 17.7 0.00 0.10 0.00 78 1005.5
20260509174028 29 192 3.2 16.1 0.00 0.10 0.00 80 1006.0
20260509173129 28 199 1.6 11.3 0.00 0.10 0.00 82 1006.0
20260509172229 28 212 1.6 14.5 0.00 0.10 0.00 83 1006.3
20260509171328 28 230 1.6 12.9 0.00 0.10 0.00 84 1006.3
20260509170429 27 313 0.0 8.0 0.00 0.10 0.00 86 1006.4
20260509165529 27 0 0.0 0.0 0.00 0.10 0.00 86 1006.3
20260509164628 27 0 0.0 0.0 0.00 0.10 0.00 86 1006.3
20260509162828 27 0 0.0 0.0 0.00 0.10 0.00 88 1006.2
20260509161928 27 0 0.0 0.0 0.00 0.10 0.00 89 1006.2
20260509161028 27 0 0.0 0.0 0.00 0.10 0.00 88 1006.1
20260509160128 26 0 0.0 0.0 0.00 0.10 0.00 88 1006.1
20260509154328 26 0 0.0 0.0 0.00 0.10 0.00 90 1006.0
20260509153429 26 0 0.0 0.0 0.00 0.10 0.00 92 1006.0
20260509152529 26 0 0.0 0.0 0.00 0.10 0.00 94 1006.1
20260509151629 25 0 0.0 0.0 0.00 0.13 0.00 93 1006.1
20260509145829 25 0 0.0 0.0 0.00 0.13 0.00 95 1006.0
20260509144929 25 0 0.0 0.0 0.00 0.13 0.00 96 1005.7
20260509144028 25 0 0.0 0.0 0.00 0.13 0.00 97 1005.6
20260509143129 25 0 0.0 0.0 0.00 0.13 0.00 97 1005.6
20260509142228 25 0 0.0 0.0 0.00 0.13 0.00 98 1005.4
20260509141329 24 0 0.0 0.0 0.00 0.13 0.00 98 1005.4
20260509135529 24 0 0.0 0.0 0.00 0.13 0.00 98 1005.6
20260509134628 24 0 0.0 0.0 0.00 0.13 0.00 99 1005.6
20260509133728 24 0 0.0 0.0 0.00 0.13 0.00 100 1006.5
20260509132828 24 0 0.0 0.0 0.00 0.13 0.00 100 1006.5
20260509131928 24 0 0.0 0.0 0.00 0.13 0.00 100 1006.4
20260509131029 24 0 0.0 0.0 0.00 0.13 0.00 100 1006.2
20260509130128 24 0 0.0 0.0 0.00 0.13 0.00 100 1006.2
20260509125228 23 0 0.0 0.0 0.00 0.13 0.00 100 1006.0
20260509124328 23 0 0.0 0.0 0.00 0.13 0.00 100 1006.0
20260509123429 23 0 0.0 0.0 0.00 0.13 0.00 100 1006.0
20260509122529 23 0 0.0 0.0 0.00 0.13 0.00 100 1006.0
20260509121628 23 0 0.0 0.0 0.00 0.13 0.00 100 1006.0
20260509120728 23 0 0.0 0.0 0.00 0.13 0.00 100 1005.5
20260509115828 23 0 0.0 0.0 0.00 0.13 0.00 100 1005.5
20260509114929 23 0 0.0 0.0 0.00 0.13 0.00 100 1005.8
20260509114028 23 0 0.0 0.0 0.00 0.13 0.00 99 1006.1
20260509113128 23 0 0.0 0.0 0.00 0.13 0.00 99 1006.1
20260509112229 23 0 0.0 0.0 0.00 0.13 0.00 99 1005.9
20260509111328 23 0 0.0 0.0 0.00 0.13 0.00 99 1005.9
20260509110429 23 0 0.0 0.0 0.00 0.13 0.00 99 1005.4
20260509105528 23 0 0.0 0.0 0.00 0.13 0.00 99 1005.2